GW0815 Weather Reports


Display with metric or nautical units.
time (UTC)temp
F
wind
direction
speed
MPH
gust
MPH
rain 1hr
in
rain 24hr
in
rain mn
in
humidity
%
barometer
mb
20260505230034 61 298 6.0 10.0 0.00 0.00 0.00 72 1015.8
20260505224525 61 286 6.0 11.0 0.00 0.00 0.00 72 1015.9
20260505223030 60 277 5.0 10.0 0.00 0.00 0.00 73 1016.1
20260505221525 60 252 4.0 11.0 0.00 0.00 0.00 75 1016.2
20260505220020 59 269 5.0 11.0 0.00 0.00 0.00 74 1016.3
20260505214524 59 292 6.0 10.0 0.00 0.00 0.00 75 1016.4
20260505213019 59 269 7.0 11.0 0.00 0.00 0.00 76 1016.5
20260505211518 59 308 5.0 10.0 0.00 0.00 0.00 75 1016.5
20260505210016 59 238 5.0 11.0 0.00 0.00 0.00 75 1016.5
20260505204516 59 219 5.0 9.0 0.00 0.00 0.00 76 1016.5
20260505203013 58 280 6.0 11.0 0.00 0.00 0.00 76 1016.5
20260505201513 58 259 4.0 8.0 0.00 0.00 0.00 77 1016.5
20260505200008 58 229 4.0 12.0 0.00 0.00 0.00 78 1016.4
20260505194508 58 252 5.0 11.0 0.00 0.00 0.00 77 1016.5
20260505193006 57 259 5.0 9.0 0.00 0.00 0.00 78 1016.5
20260505191505 57 223 4.0 9.0 0.00 0.00 0.00 79 1016.4
20260505190003 57 220 3.0 9.0 0.00 0.00 0.00 80 1016.4
20260505184502 56 257 2.0 10.0 0.00 0.00 0.00 81 1016.4
20260505183107 56 208 6.0 9.0 0.00 0.00 0.00 82 1016.4
20260505181558 55 211 5.0 11.0 0.00 0.00 0.00 81 1016.4
20260505180058 55 218 5.0 8.0 0.00 0.00 0.00 82 1016.3
20260505174600 55 238 5.0 9.0 0.00 0.00 0.00 83 1016.3
20260505173054 55 227 6.0 10.0 0.00 0.00 0.00 83 1016.3
20260505171553 55 270 3.0 5.0 0.00 0.00 0.00 84 1016.2
20260505170050 55 269 3.0 5.0 0.00 0.00 0.00 84 1016.1
20260505164549 55 261 2.0 7.0 0.00 0.00 0.00 84 1016.0
20260505163047 54 255 4.0 8.0 0.00 0.00 0.00 84 1015.9
20260505161546 54 211 3.0 7.0 0.00 0.00 0.00 85 1015.8
20260505153043 54 240 3.0 8.0 0.00 0.00 0.00 86 1015.6
20260505151542 54 251 4.0 8.0 0.00 0.00 0.00 86 1015.6
20260505124534 53 222 7.0 12.0 0.00 0.00 0.00 88 1014.3
20260505123030 53 226 4.0 8.0 0.00 0.00 0.00 88 1014.2
20260505121534 53 234 6.0 8.0 0.00 0.00 0.00 87 1014.1
20260505120037 53 215 5.0 10.0 0.00 0.00 0.00 87 1014.0
20260505114523 53 229 6.0 10.0 0.00 0.00 0.00 87 1014.0
20260505113127 53 182 7.0 12.0 0.00 0.00 0.00 87 1013.9
20260505111521 53 210 6.0 12.0 0.00 0.00 0.00 88 1013.9
20260505101514 53 220 8.0 11.0 0.00 0.00 0.00 89 1013.4
20260505100014 53 213 8.0 14.0 0.00 0.00 0.00 89 1013.4
20260505094510 53 219 7.0 10.0 0.00 0.00 0.00 89 1013.3
20260505093009 53 206 9.0 17.0 0.00 0.00 0.00 89 1013.2
20260505091509 53 226 10.0 14.0 0.00 0.00 0.00 89 1013.1
20260505090016 53 220 10.0 19.0 0.00 0.00 0.00 89 1013.0
20260505084505 53 218 11.0 14.0 0.00 0.00 0.00 89 1012.9
20260505083012 53 232 10.0 13.0 0.00 0.00 0.00 89 1013.0
20260505081503 53 198 9.0 12.0 0.00 0.00 0.00 89 1012.9
20260505074558 53 201 8.0 11.0 0.00 0.00 0.00 89 1012.7
20260505073113 53 236 8.0 13.0 0.00 0.00 0.00 89 1012.5
20260505071600 53 200 10.0 14.0 0.00 0.00 0.00 89 1012.2
20260505070056 53 213 8.0 12.0 0.00 0.00 0.00 88 1012.3
20260505064550 53 225 7.0 11.0 0.00 0.00 0.00 88 1012.3
20260505063045 53 198 8.0 12.0 0.00 0.00 0.00 87 1012.1
20260505061545 54 201 7.0 9.0 0.00 0.00 0.00 86 1011.9
20260505060046 54 182 6.0 10.0 0.00 0.00 0.00 86 1011.8
20260505054536 54 225 7.0 10.0 0.00 0.00 0.00 85 1011.5
20260505053034 55 190 6.0 9.0 0.00 0.00 0.00 85 1011.6
20260505051539 55 222 5.0 9.0 0.00 0.00 0.00 84 1011.5
20260505041528 57 225 11.0 20.0 0.00 0.00 0.00 79 1010.7
20260505040026 58 209 12.0 16.0 0.00 0.00 0.00 76 1010.6
20260505034525 60 217 9.0 17.0 0.00 0.00 0.00 74 1010.3
20260505033025 61 234 10.0 18.0 0.00 0.00 0.00 70 1010.2
20260505031524 63 222 9.0 15.0 0.00 0.00 0.00 68 1010.1
20260505030023 64 227 9.0 15.0 0.00 0.00 0.00 65 1009.8
20260505024522 66 237 10.0 16.0 0.00 0.00 0.00 62 1009.7
20260505023024 67 257 10.0 18.0 0.00 0.00 0.00 60 1009.7
20260505021621 68 225 9.0 18.0 0.00 0.00 0.00 58 1009.6
20260505020021 70 248 10.0 19.0 0.00 0.00 0.00 54 1009.5
20260505014520 72 224 10.0 17.0 0.00 0.00 0.00 51 1009.5
20260505013019 74 235 9.0 15.0 0.00 0.00 0.00 49 1009.5
20260505011523 75 229 7.0 11.0 0.00 0.00 0.00 48 1009.6
20260505010017 75 236 7.0 10.0 0.00 0.00 0.00 48 1009.6
20260505004521 77 254 7.0 13.0 0.00 0.00 0.00 45 1009.6
20260505003015 77 259 6.0 12.0 0.00 0.00 0.00 46 1009.6
20260505001517 77 221 5.0 10.0 0.00 0.00 0.00 47 1009.6
20260505000022 77 231 7.0 13.0 0.00 0.00 0.00 46 1009.5
20260504234514 77 269 7.0 11.0 0.00 0.00 0.00 46 1009.4
20260504233012 76 245 8.0 15.0 0.00 0.00 0.00 47 1009.6
20260504231512 76 227 8.0 12.0 0.00 0.00 0.00 46 1009.7